Volver al catálogo

CZ-6A DEB

ActivoPO
NORAD 61130·DEBRIS·🇨🇳 China

Lanzado Aug 6, 2024 desde Taiyuan Satellite Launch Center

Loading…

Próximos Pases (próximas 24 horas)

TLE

ActualizadoSource: Space-Track

Época: Sep 14, 2026, 08:33 UTC

1 61130U 24140PY  26257.35629047  .00001701  00000-0  62259-3 0  9996
2 61130  88.6248 228.9276 0067375 146.3276 214.2229 14.31200660107612

Sigue CZ-6A DEB en tiempo real con AllMySat

Download on the App Store